Time,TemperatureF,DewpointF,PressureIn,WindDirection,WindDirectionDegrees,WindSpeedMPH,WindSpeedGustMPH,Humidity,HourlyPrecipIn,Conditions,Clouds,dailyrainin,SoftwareType,DateUTC
2013-02-22 00:01:00,43.0,-99.9,30.20,NNE,30,0.0,0.0,-999,0.00,,,0.00,,2013-02-22 08:01:00,
2013-02-22 00:11:00,44.0,-99.9,30.20,NNE,30,0.0,0.0,-999,0.00,,,0.00,,2013-02-22 08:11:00,
2013-02-22 00:21:00,44.0,-99.9,30.20,NNE,30,0.0,0.0,-999,0.00,,,0.00,,2013-02-22 08:21:00,
2013-02-22 00:32:00,43.0,-99.9,30.20,NNE,30,0.0,0.0,-999,0.00,,,0.00,,2013-02-22 08:32:00,
2013-02-22 00:42:00,43.0,-99.9,30.20,NNE,30,0.0,0.0,-999,0.00,,,0.00,,2013-02-22 08:42:00,
2013-02-22 00:52:00,44.0,-99.9,30.19,NNE,30,0.0,0.0,-999,0.00,,,0.00,,2013-02-22 08:52:00,
2013-02-22 01:03:00,43.0,-99.9,30.20,NNE,30,0.0,0.0,-999,0.00,,,0.00,,2013-02-22 09:03:00,
2013-02-22 01:11:00,43.0,-99.9,30.21,NNE,30,0.0,0.0,-999,0.00,,,0.00,,2013-02-22 09:11:00,
2013-02-22 01:22:00,43.0,-99.9,30.21,NNE,30,0.0,0.0,-999,0.00,,,0.00,,2013-02-22 09:22:00,
2013-02-22 01:32:00,44.0,-99.9,30.21,NNE,30,0.0,0.0,-999,0.00,,,0.00,,2013-02-22 09:32:00,
2013-02-22 01:42:00,45.0,-99.9,30.20,NNE,30,0.0,0.0,-999,0.00,,,0.00,,2013-02-22 09:42:00,
2013-02-22 01:52:00,45.0,-99.9,30.20,NNE,30,0.0,0.0,-999,0.00,,,0.00,,2013-02-22 09:52:00,
2013-02-22 02:01:00,43.0,-99.9,30.20,NNE,30,0.0,0.0,-999,0.00,,,0.00,,2013-02-22 10:01:00,
2013-02-22 02:11:00,43.0,-99.9,30.20,NNE,30,0.0,0.0,-999,0.00,,,0.00,,2013-02-22 10:11:00,
2013-02-22 02:22:00,43.0,-99.9,30.20,NNE,30,0.0,0.0,-999,0.00,,,0.00,,2013-02-22 10:22:00,
2013-02-22 02:32:00,43.0,-99.9,30.20,NNE,30,0.0,0.0,-999,0.00,,,0.00,,2013-02-22 10:32:00,
2013-02-22 02:42:00,44.0,-99.9,30.20,NNE,30,0.0,0.0,-999,0.00,,,0.00,,2013-02-22 10:42:00,
2013-02-22 02:52:00,44.0,-99.9,30.20,NNE,30,0.0,0.0,-999,0.00,,,0.00,,2013-02-22 10:52:00,
2013-02-22 03:01:00,45.0,-99.9,30.19,NNE,30,0.0,0.0,-999,0.00,,,0.00,,2013-02-22 11:01:00,
2013-02-22 03:11:00,45.0,-99.9,30.19,NNE,30,0.0,0.0,-999,0.00,,,0.00,,2013-02-22 11:11:00,
2013-02-22 03:22:00,45.0,-99.9,30.19,NNE,30,0.0,0.0,-999,0.00,,,0.00,,2013-02-22 11:22:00,
2013-02-22 03:32:00,45.0,-99.9,30.19,NNE,30,0.0,0.0,-999,0.00,,,0.00,,2013-02-22 11:32:00,
2013-02-22 03:42:00,46.0,-99.9,30.15,NNE,30,0.0,0.0,-999,0.00,,,0.00,,2013-02-22 11:42:00,
2013-02-22 03:52:00,46.0,-99.9,30.15,NNE,30,0.0,0.0,-999,0.00,,,0.00,,2013-02-22 11:52:00,
2013-02-22 04:02:00,46.0,-99.9,30.19,NNE,30,0.0,0.0,-999,0.00,,,0.00,,2013-02-22 12:02:00,
2013-02-22 04:11:00,46.0,-99.9,30.19,NNE,30,0.0,0.0,-999,0.00,,,0.00,,2013-02-22 12:11:00,
2013-02-22 04:22:00,46.0,-99.9,30.19,NNE,30,0.0,0.0,-999,0.00,,,0.00,,2013-02-22 12:22:00,
2013-02-22 04:32:00,44.0,-99.9,30.19,NNE,30,0.0,0.0,-999,0.00,,,0.00,,2013-02-22 12:32:00,
2013-02-22 04:42:00,44.0,-99.9,30.19,NNE,30,0.0,0.0,-999,0.00,,,0.00,,2013-02-22 12:42:00,
2013-02-22 04:52:00,44.0,-99.9,30.19,NNE,30,0.0,0.0,-999,0.00,,,0.00,,2013-02-22 12:52:00,
2013-02-22 05:02:00,44.0,-99.9,30.20,NNE,30,0.0,0.0,-999,0.00,,,0.00,,2013-02-22 13:02:00,
2013-02-22 05:11:00,44.0,-99.9,30.20,NNE,30,0.0,0.0,-999,0.00,,,0.00,,2013-02-22 13:11:00,
2013-02-22 05:22:00,44.0,-99.9,30.20,NNE,30,0.0,0.0,-999,0.00,,,0.00,,2013-02-22 13:22:00,
2013-02-22 05:32:00,43.0,-99.9,30.20,NNE,30,0.0,0.0,-999,0.00,,,0.00,,2013-02-22 13:32:00,
2013-02-22 05:42:00,42.0,-99.9,30.21,NNE,30,0.0,0.0,-999,0.00,,,0.00,,2013-02-22 13:42:00,
2013-02-22 05:52:00,42.0,-99.9,30.21,NNE,30,0.0,0.0,-999,0.00,,,0.00,,2013-02-22 13:52:00,
2013-02-22 06:01:00,42.0,-99.9,30.21,NNE,30,0.0,0.0,-999,0.00,,,0.00,,2013-02-22 14:01:00,
2013-02-22 06:11:00,41.0,-99.9,30.21,NNE,30,0.0,0.0,-999,0.00,,,0.00,,2013-02-22 14:11:00,
2013-02-22 06:22:00,41.0,-99.9,30.21,NNE,30,0.0,0.0,-999,0.00,,,0.00,,2013-02-22 14:22:00,
2013-02-22 06:32:00,44.0,-99.9,30.22,NNE,30,0.0,0.0,-999,0.00,,,0.00,,2013-02-22 14:32:00,
2013-02-22 06:42:00,43.0,-99.9,30.22,NNE,30,0.0,0.0,-999,0.00,,,0.00,,2013-02-22 14:42:00,
2013-02-22 06:53:00,43.0,-99.9,30.22,NNE,30,0.0,0.0,-999,0.00,,,0.00,,2013-02-22 14:53:00,
2013-02-22 07:02:00,41.0,-99.9,30.22,NNE,30,0.0,0.0,-999,0.00,,,0.00,,2013-02-22 15:02:00,
2013-02-22 07:12:00,41.0,-99.9,30.23,NNE,30,0.0,0.0,-999,0.00,,,0.00,,2013-02-22 15:12:00,
2013-02-22 07:22:00,41.0,-99.9,30.23,NNE,30,0.0,0.0,-999,0.00,,,0.00,,2013-02-22 15:22:00,
2013-02-22 07:32:00,45.0,-99.9,30.23,NNE,30,0.0,0.0,-999,0.00,,,0.00,,2013-02-22 15:32:00,
2013-02-22 07:42:00,45.0,-99.9,30.23,NNE,30,0.0,0.0,-999,0.00,,,0.00,,2013-02-22 15:42:00,
2013-02-22 07:52:00,47.0,-99.9,30.23,NNE,30,0.0,0.0,-999,0.00,,,0.00,,2013-02-22 15:52:00,
2013-02-22 08:02:00,47.0,-99.9,30.24,NNE,30,0.0,0.0,-999,0.00,,,0.00,,2013-02-22 16:02:00,
2013-02-22 08:12:00,48.0,-99.9,30.25,NNE,30,0.0,0.0,-999,0.00,,,0.00,,2013-02-22 16:12:00,
2013-02-22 08:22:00,48.0,-99.9,30.25,NNE,30,0.0,0.0,-999,0.00,,,0.00,,2013-02-22 16:22:00,
2013-02-22 08:32:00,48.0,-99.9,30.25,East,90,0.0,0.0,-999,0.00,,,0.00,,2013-02-22 16:32:00,
2013-02-22 08:42:00,48.0,-99.9,30.25,East,90,0.0,0.0,-999,0.00,,,0.00,,2013-02-22 16:42:00,
2013-02-22 08:52:00,49.0,-99.9,30.25,East,90,0.0,0.0,-999,0.00,,,0.00,,2013-02-22 16:52:00,
2013-02-22 09:01:00,49.0,-99.9,30.25,East,90,0.0,0.0,-999,0.00,,,0.00,,2013-02-22 17:01:00,
2013-02-22 09:12:00,49.0,-99.9,30.25,East,90,0.0,0.0,-999,0.00,,,0.00,,2013-02-22 17:12:00,
2013-02-22 09:22:00,49.0,-99.9,30.25,East,90,0.0,0.0,-999,0.00,,,0.00,,2013-02-22 17:22:00,
2013-02-22 09:32:00,51.0,-99.9,30.26,East,90,0.0,0.0,-999,0.00,,,0.00,,2013-02-22 17:32:00,
2013-02-22 09:42:00,51.0,-99.9,30.26,East,90,0.0,0.0,-999,0.00,,,0.00,,2013-02-22 17:42:00,
2013-02-22 09:52:00,51.0,-99.9,30.26,East,90,0.0,0.0,-999,0.00,,,0.00,,2013-02-22 17:52:00,
2013-02-22 10:02:00,52.0,-99.9,30.26,East,90,0.0,0.0,-999,0.00,,,0.00,,2013-02-22 18:02:00,
2013-02-22 10:12:00,55.0,-99.9,30.25,East,90,0.0,0.0,-999,0.00,,,0.00,,2013-02-22 18:12:00,
2013-02-22 10:23:00,55.0,-99.9,30.25,East,90,0.0,0.0,-999,0.00,,,0.00,,2013-02-22 18:23:00,
2013-02-22 10:32:00,58.0,-99.9,30.26,East,90,0.0,0.0,-999,0.00,,,0.00,,2013-02-22 18:32:00,
2013-02-22 10:42:00,58.0,-99.9,30.26,East,90,0.0,0.0,-999,0.00,,,0.00,,2013-02-22 18:42:00,
2013-02-22 10:52:00,57.0,-99.9,30.26,East,90,0.0,0.0,-999,0.00,,,0.00,,2013-02-22 18:52:00,
2013-02-22 11:01:00,59.0,-99.9,30.27,WSW,242,0.0,5.0,-999,0.00,,,0.00,,2013-02-22 19:01:00,
2013-02-22 11:11:00,61.0,-99.9,30.27,WSW,242,0.0,0.0,-999,0.00,,,0.00,,2013-02-22 19:11:00,
2013-02-22 11:21:00,61.0,-99.9,30.27,WSW,242,0.0,0.0,-999,0.00,,,0.00,,2013-02-22 19:21:00,
2013-02-22 11:31:00,56.0,-99.9,30.27,WSW,242,0.0,0.0,-999,0.00,,,0.00,,2013-02-22 19:31:00,
2013-02-22 11:42:00,57.0,-99.9,30.27,WSW,242,0.0,0.0,-999,0.00,,,0.00,,2013-02-22 19:42:00,
2013-02-22 11:52:00,57.0,-99.9,30.27,WSW,242,0.0,0.0,-999,0.00,,,0.00,,2013-02-22 19:52:00,
2013-02-22 12:01:00,57.0,-99.9,30.27,WSW,242,0.0,0.0,-999,0.00,,,0.00,,2013-02-22 20:01:00,
2013-02-22 12:11:00,57.0,-99.9,30.27,WSW,242,0.0,0.0,-999,0.00,,,0.00,,2013-02-22 20:11:00,
2013-02-22 12:22:00,57.0,-99.9,30.27,WSW,242,0.0,0.0,-999,0.00,,,0.00,,2013-02-22 20:22:00,
2013-02-22 12:32:00,56.0,-99.9,30.25,ENE,66,0.0,0.0,-999,0.00,,,0.00,,2013-02-22 20:32:00,
2013-02-22 12:42:00,56.0,-99.9,30.25,ENE,66,0.0,0.0,-999,0.00,,,0.00,,2013-02-22 20:42:00,
2013-02-22 12:52:00,58.0,-99.9,30.25,ENE,66,0.0,0.0,-999,0.00,,,0.00,,2013-02-22 20:52:00,
2013-02-22 13:02:00,58.0,-99.9,30.24,ENE,70,0.0,0.0,-999,0.00,,,0.00,,2013-02-22 21:02:00,
2013-02-22 13:11:00,59.0,-99.9,30.24,ENE,70,0.0,0.0,-999,0.00,,,0.00,,2013-02-22 21:11:00,
2013-02-22 13:22:00,59.0,-99.9,30.24,ENE,70,0.0,0.0,-999,0.00,,,0.00,,2013-02-22 21:22:00,
2013-02-22 13:32:00,60.0,-99.9,30.24,East,87,0.0,0.0,-999,0.00,,,0.00,,2013-02-22 21:32:00,
2013-02-22 13:42:00,60.0,-99.9,30.23,NE,41,0.0,0.0,-999,0.00,,,0.00,,2013-02-22 21:42:00,
2013-02-22 13:52:00,60.0,-99.9,30.23,NE,41,0.0,0.0,-999,0.00,,,0.00,,2013-02-22 21:52:00,
2013-02-22 14:01:00,59.0,-99.9,30.23,NE,41,0.0,0.0,-999,0.00,,,0.00,,2013-02-22 22:01:00,
2013-02-22 14:11:00,59.0,-99.9,30.23,NE,41,0.0,0.0,-999,0.00,,,0.00,,2013-02-22 22:11:00,
2013-02-22 14:22:00,59.0,-99.9,30.23,NE,41,0.0,0.0,-999,0.00,,,0.00,,2013-02-22 22:22:00,
2013-02-22 14:32:00,60.0,-99.9,30.22,East,96,0.0,0.0,-999,0.00,,,0.00,,2013-02-22 22:32:00,
2013-02-22 14:42:00,60.0,-99.9,30.22,East,96,0.0,0.0,-999,0.00,,,0.00,,2013-02-22 22:42:00,
2013-02-22 14:52:00,60.0,-99.9,30.22,East,96,0.0,0.0,-999,0.00,,,0.00,,2013-02-22 22:52:00,
2013-02-22 15:01:00,59.0,-99.9,30.22,East,96,0.0,0.0,-999,0.00,,,0.00,,2013-02-22 23:01:00,
2013-02-22 15:11:00,59.0,-99.9,30.22,NE,56,0.0,0.0,-999,0.00,,,0.00,,2013-02-22 23:11:00,
2013-02-22 15:21:00,59.0,-99.9,30.22,NE,56,0.0,0.0,-999,0.00,,,0.00,,2013-02-22 23:21:00,
2013-02-22 15:32:00,59.0,-99.9,30.22,NE,56,0.0,0.0,-999,0.00,,,0.00,,2013-02-22 23:32:00,
2013-02-22 15:42:00,59.0,-99.9,30.22,NE,56,0.0,0.0,-999,0.00,,,0.00,,2013-02-22 23:42:00,
2013-02-22 15:52:00,58.0,-99.9,30.22,NE,56,0.0,0.0,-999,0.00,,,0.00,,2013-02-22 23:52:00,
2013-02-22 16:02:00,57.0,-99.9,30.22,NE,56,0.0,0.0,-999,0.00,,,0.00,,2013-02-23 00:02:00,
2013-02-22 16:11:00,57.0,-99.9,30.23,NE,42,0.0,0.0,-999,0.00,,,0.00,,2013-02-23 00:11:00,
2013-02-22 16:22:00,57.0,-99.9,30.23,NE,42,0.0,0.0,-999,0.00,,,0.00,,2013-02-23 00:22:00,
2013-02-22 16:32:00,56.0,-99.9,30.22,NE,42,0.0,0.0,-999,0.00,,,0.00,,2013-02-23 00:32:00,
2013-02-22 16:42:00,56.0,-99.9,30.22,NE,42,0.0,0.0,-999,0.00,,,0.00,,2013-02-23 00:42:00,
2013-02-22 16:52:00,57.0,-99.9,30.22,NE,42,0.0,0.0,-999,0.00,,,0.00,,2013-02-23 00:52:00,
2013-02-22 17:01:00,55.0,-99.9,30.22,NE,42,0.0,0.0,-999,0.00,,,0.00,,2013-02-23 01:01:00,
2013-02-22 17:11:00,53.0,-99.9,30.24,NE,42,0.0,0.0,-999,0.00,,,0.00,,2013-02-23 01:11:00,
2013-02-22 17:21:00,53.0,-99.9,30.24,NE,42,0.0,0.0,-999,0.00,,,0.00,,2013-02-23 01:21:00,
2013-02-22 17:32:00,52.0,-99.9,30.23,NE,42,0.0,3.0,-999,0.00,,,0.00,,2013-02-23 01:32:00,
2013-02-22 17:42:00,52.0,-99.9,30.23,NE,42,0.0,3.0,-999,0.00,,,0.00,,2013-02-23 01:42:00,
2013-02-22 17:52:00,51.0,-99.9,30.23,NNE,30,0.0,0.0,-999,0.00,,,0.00,,2013-02-23 01:52:00,
2013-02-22 18:01:00,49.0,-99.9,30.23,NNE,30,0.0,0.0,-999,0.00,,,0.00,,2013-02-23 02:01:00,
2013-02-22 18:11:00,49.0,-99.9,30.23,NNE,30,0.0,0.0,-999,0.00,,,0.00,,2013-02-23 02:11:00,
2013-02-22 18:22:00,49.0,-99.9,30.23,NNE,30,0.0,0.0,-999,0.00,,,0.00,,2013-02-23 02:22:00,
2013-02-22 18:32:00,50.0,-99.9,30.22,NNE,30,0.0,0.0,-999,0.00,,,0.00,,2013-02-23 02:32:00,
2013-02-22 18:42:00,50.0,-99.9,30.22,NNE,30,0.0,0.0,-999,0.00,,,0.00,,2013-02-23 02:42:00,
2013-02-22 18:52:00,50.0,-99.9,30.23,NNE,30,0.0,0.0,-999,0.00,,,0.00,,2013-02-23 02:52:00,
2013-02-22 19:02:00,51.0,-99.9,30.23,NNE,30,0.0,0.0,-999,0.00,,,0.00,,2013-02-23 03:02:00,
2013-02-22 19:11:00,49.0,-99.9,30.24,NNE,30,0.0,0.0,-999,0.00,,,0.00,,2013-02-23 03:11:00,
2013-02-22 19:22:00,49.0,-99.9,30.24,NNE,30,0.0,0.0,-999,0.00,,,0.00,,2013-02-23 03:22:00,
2013-02-22 19:32:00,49.0,-99.9,30.24,NNE,30,0.0,0.0,-999,0.00,,,0.00,,2013-02-23 03:32:00,
2013-02-22 19:42:00,49.0,-99.9,30.24,NNE,30,0.0,0.0,-999,0.00,,,0.00,,2013-02-23 03:42:00,
2013-02-22 19:52:00,49.0,-99.9,30.23,NNE,30,0.0,0.0,-999,0.00,,,0.00,,2013-02-23 03:52:00,
2013-02-22 20:01:00,48.0,-99.9,30.23,NNE,30,0.0,0.0,-999,0.00,,,0.00,,2013-02-23 04:01:00,
2013-02-22 20:11:00,49.0,-99.9,30.24,NNE,30,0.0,0.0,-999,0.00,,,0.00,,2013-02-23 04:11:00,
2013-02-22 20:21:00,49.0,-99.9,30.24,NNE,30,0.0,0.0,-999,0.00,,,0.00,,2013-02-23 04:21:00,
2013-02-22 20:32:00,48.0,-99.9,30.24,NNE,30,0.0,0.0,-999,0.00,,,0.00,,2013-02-23 04:32:00,
2013-02-22 20:42:00,48.0,-99.9,30.24,NNE,30,0.0,0.0,-999,0.00,,,0.00,,2013-02-23 04:42:00,
2013-02-22 20:52:00,47.0,-99.9,30.24,NNE,30,0.0,0.0,-999,0.00,,,0.00,,2013-02-23 04:52:00,
2013-02-22 21:03:00,47.0,-99.9,30.24,NNE,30,0.0,0.0,-999,0.00,,,0.00,,2013-02-23 05:03:00,
2013-02-22 21:12:00,47.0,-99.9,30.24,NNE,30,0.0,0.0,-999,0.00,,,0.00,,2013-02-23 05:12:00,
2013-02-22 21:23:00,47.0,-99.9,30.24,NNE,30,0.0,0.0,-999,0.00,,,0.00,,2013-02-23 05:23:00,
2013-02-22 21:33:00,45.0,-99.9,30.24,NNE,30,0.0,0.0,-999,0.00,,,0.00,,2013-02-23 05:33:00,
2013-02-22 21:42:00,45.0,-99.9,30.24,NNE,30,0.0,0.0,-999,0.00,,,0.00,,2013-02-23 05:42:00,
2013-02-22 21:52:00,45.0,-99.9,30.24,NNE,30,0.0,0.0,-999,0.00,,,0.00,,2013-02-23 05:52:00,
2013-02-22 22:02:00,45.0,-99.9,30.24,NNE,30,0.0,0.0,-999,0.00,,,0.00,,2013-02-23 06:02:00,
2013-02-22 22:11:00,45.0,-99.9,30.24,NNE,30,0.0,0.0,-999,0.00,,,0.00,,2013-02-23 06:11:00,
2013-02-22 22:23:00,46.0,-99.9,30.25,NNE,30,0.0,0.0,-999,0.00,,,0.00,,2013-02-23 06:23:00,
2013-02-22 22:32:00,45.0,-99.9,30.27,NNE,30,0.0,0.0,-999,0.00,,,0.00,,2013-02-23 06:32:00,
2013-02-22 22:42:00,45.0,-99.9,30.27,NNE,30,0.0,0.0,-999,0.00,,,0.00,,2013-02-23 06:42:00,
2013-02-22 22:52:00,46.0,-99.9,30.26,NNE,30,0.0,0.0,-999,0.00,,,0.00,,2013-02-23 06:52:00,
2013-02-22 23:01:00,45.0,-99.9,30.26,NNE,30,0.0,0.0,-999,0.00,,,0.00,,2013-02-23 07:01:00,
2013-02-22 23:11:00,44.0,-99.9,30.26,NNE,13,0.0,0.0,-999,0.00,,,0.00,,2013-02-23 07:11:00,
2013-02-22 23:21:00,44.0,-99.9,30.26,NNE,13,0.0,0.0,-999,0.00,,,0.00,,2013-02-23 07:21:00,
2013-02-22 23:32:00,48.0,-99.9,30.27,NE,44,1.0,0.0,-999,0.00,,,0.00,,2013-02-23 07:32:00,
2013-02-22 23:42:00,48.0,-99.9,30.27,NE,44,1.0,0.0,-999,0.00,,,0.00,,2013-02-23 07:42:00,
2013-02-22 23:52:00,48.0,-99.9,30.26,NE,38,2.0,0.0,-999,0.00,,,0.00,,2013-02-23 07:52:00,